Regional Weather Roundup
Issued by NWS

Home | Current Version | Previous Version | Text Only | Print | Product List | Glossary On
Versions: 1 2 3 4 5 6 7 8 9 10 11 12 13 14 15 16 17 18 19 20 21 22 23 24 25 26 27 28 29 30 31 32 33 34 35 36 37 38 39 40 41 42 43 44 45 46 47 48 49 50
476
ASUS43 KMPX 261710
RWRMN
WEATHER ROUNDUP FOR MINNESOTA
NATIONAL WEATHER SERVICE TWIN CITIES/CHANHASSEN MN
1200 PM CDT FRI MAY 26 2017


NOTE: "FAIR" INDICATES FEW OR NO CLOUDS BELOW 12,000 FEET WITH NO
SIGNIFICANT WEATHER AND/OR OBSTRUCTIONS TO VISIBILITY. N/A MEANS
CURRENT SKY AND/OR WEATHER CONDITIONS ARE NOT AVAILABLE.

MNZ060>063-068>070-261800-
   Twin Cities Metro

CITY           SKY/WX    TMP DP  RH WIND       PRES   REMARKS
TWIN CITIES    PTSUNNY   70  55  59 S12       29.74S
ST PAUL        CLOUDY    69  58  67 S8        29.75R
CRYSTAL        MOSUNNY   70  54  56 S9        29.72F
BLAINE         MOSUNNY   72  55  56 S13       29.73F
LAKEVILLE      PTSUNNY   68  55  64 S7        29.75S
EDEN PRAIRIE   MOSUNNY   71  56  58 S10       29.73S
SOUTH ST PAUL  CLOUDY    68  55  62 S6        29.75S
LAKE ELMO      FAIR      66  57  72 S10       29.76R
$$
MNZ001>005-007-008-013>017-022>024-027-028-261800-
   Northwest Minnesota

CITY           SKY/WX    TMP DP  RH WIND       PRES   REMARKS
BEMIDJI        MOSUNNY   71  47  42 W15       29.66S
HALLOCK        SUNNY     68  46  45 W13G22    29.61S
ROSEAU         SUNNY     70  48  46 W10G20    29.62S
WARROAD        MOSUNNY   66  48  52 SW6       29.62S
THIEF RVR FALL SUNNY     67  44  43 W16G23    29.66R
CROOKSTON      SUNNY     68  46  45 W13G18    29.66R
FOSSTON        MOSUNNY   68  46  45 W15G25    29.68R
DETROIT LAKES  SUNNY     66  46  48 W10G16    29.71S
MOORHEAD       SUNNY     70  45  40 W15       29.70S
PARK RAPIDS    MOSUNNY   72  47  40 W10G17    29.68S
MAHNOMEN       FAIR      68  47  45 W16G24    29.68R
$$
MNZ006-009>011-018-025>026-261800-
   North Central Minnesota

CITY           SKY/WX    TMP DP  RH WIND       PRES   REMARKS
BAUDETTE       PTSUNNY   70  52  52 VRB6      29.61F
FLAG ISLAND    MOSUNNY   57  52  82 S10       29.61S
INTL FALLS     CLOUDY    70  54  56 VRB6      29.64S
WASKISH        PTSUNNY   66  54  63 W7        29.65S
BIG FORK       PTSUNNY   72  57  60 S12       29.66S
LONGVILLE      SUNNY     72  57  60 S5        29.68S
GRAND RAPIDS   MOSUNNY   69  57  65 S8        29.69S
CRANE LAKE     PTSUNNY   66  52  59 S9        29.68F
ORR            MOSUNNY   70  52  52 S13       29.64F
COOK           CLOUDY    66  54  63 S12       29.69S
WALKER         FAIR      70  49  46 SW9G17    29.66S
$$
MNZ012-019>021-037-261800-
   Northeast Minnesota

CITY           SKY/WX    TMP DP  RH WIND       PRES   REMARKS
DULUTH         PTSUNNY   60  52  74 SE9       29.73S
ELY            PTSUNNY   64  52  63 S12G17    29.69F
HIBBING        MOSUNNY   66  54  65 SE10G16   29.68F
EVELETH        MOSUNNY   66  48  53 S9        29.71S
DULUTH HARBOR  CLOUDY    48  45  87 E6        29.76R
TWO HARBORS    MOSUNNY   63  55  77 E6        29.72F
SILVER BAY     CLOUDY    55  50  82 NE8       29.74S
GRAND MARAIS     N/A     47  43  86 NE6       29.79S
G MARAIS ARPRT CLOUDY    55  45  67 SE3       29.80R
$$
MNZ029>031-032-039>041-046>048-054>057-064-261800-
   West Central Minnesota

CITY           SKY/WX    TMP DP  RH WIND       PRES   REMARKS
FERGUS FALLS   SUNNY     66  48  52 NW16G22   29.70S
WHEATON        MOSUNNY   70  45  40 W14       29.75S
MORRIS         SUNNY     70  50  49 W15G23    29.73S
ALEXANDRIA     SUNNY     68  48  48 W16       29.74R
ELBOW LAKE     FAIR      67  49  54 NW15G22   29.74R
WADENA         SUNNY     70  46  43 W15       29.70R
GLENWOOD       SUNNY     70  50  49 W16       29.74R
APPLETON       SUNNY     70  48  46 W13       29.74R
BENSON         SUNNY     72  46  40 NW14G22   29.75S
ORTONVILLE     SUNNY     68  48  49 W14       29.75R
MADISON        SUNNY     72  52  49 W17       29.75S
WILLMAR        FAIR      70  54  56 NW13G21   29.75S
$$
MNZ033>034-036-042>043-049>051-058-059-261800-
   Central Minnesota

CITY           SKY/WX    TMP DP  RH WIND       PRES   REMARKS
ST CLOUD       SUNNY     71  59  65 SE13      29.70S
SAUK CENTRE    FAIR      69  51  54 W12G17    29.72S
PAYNESVILLE    SUNNY     71  49  45 W9G16     29.73R
AITKIN         SUNNY     70  57  64 S8        29.68R
PINE RIVER     MOSUNNY   70  55  60 W6        29.72S
BRAINERD       SUNNY     72  57  59 SW10      29.69S
STAPLES        SUNNY     70  48  46 W9        29.70S
LONG PRAIRIE   FAIR      68  48  49 SW14      29.72S
LITTLE FALLS   SUNNY     70  54  56 SW8       29.71R
LITCHFIELD     SUNNY     73  59  60 W5        29.73R
BUFFALO        SUNNY     70  56  61 S6        29.73F
MAPLE LAKE     SUNNY     73  60  65 S5        29.73S
HUTCHINSON     SUNNY     71  59  65 S3        29.74S
$$
MNZ037-044-045-052-053-261800-
   East Central Minnesota

CITY           SKY/WX    TMP DP  RH WIND       PRES   REMARKS
PRINCETON      SUNNY     73  57  56 S12       29.71F
MORA           SUNNY     70  55  60 S8        29.73S
CAMBRIDGE      SUNNY     73  57  56 S9        29.70S
RUSH CITY      MOSUNNY   70  56  61 S10       29.72F
MOOSE LAKE     MOSUNNY   70  55  60 S9        29.69S
HINCKLEY       FAIR      68  59  73 S10G17    29.72F
CLOQUET        MOSUNNY   63  52  67 SE7       29.72S
MCGREGOR       MOSUNNY   70  57  64 S10       29.70S
$$
MNZ071>073-080-081-089-090-097-098-261800-
   Southwest Minnesota

CITY           SKY/WX    TMP DP  RH WIND       PRES   REMARKS
MONTEVIDEO     SUNNY     72  48  43 N13       29.75R
CANBY          SUNNY     68  51  54 W14G21    29.78R
MARSHALL       SUNNY     69  51  52 NW16G22   29.76S
REDWOOD FALLS  SUNNY     73  50  44 NW10      29.74R
OLIVIA         SUNNY     72  52  49 W16       29.73S
PIPESTONE      SUNNY     68  45  42 NW14      29.79S
WINDOM         CLOUDY    70  50  49 NW10      29.77R
WORTHINGTON    CLOUDY    71  52  50 NW13      29.79R
JACKSON        MOSUNNY   70  52  52 NW9       29.78R
TRACY          SUNNY     71  54  54 W9G20     29.76F
SLAYTON        SUNNY     68  49  49 NW15      29.79S
$$
MNZ065>067-074>077-082>085-091>093-261800-
   South Central Minnesota

CITY           SKY/WX    TMP DP  RH WIND       PRES   REMARKS
MANKATO        SUNNY     70  56  61 SW6       29.75S
NEW ULM        SUNNY     70  55  60 W5        29.74S
ST JAMES       SUNNY     72  55  56 W6        29.76S
FAIRMONT       SUNNY     70  58  65 SW5       29.76S
GLENCOE        SUNNY     72  62  71 S8        29.73S
FARIBAULT      CLOUDY    70  55  60 S8        29.76F
OWATONNA       CLOUDY    68  55  64 S7        29.77R
WASECA         MOSUNNY   70  57  64 S12       29.77F
ALBERT LEA     MOSUNNY   68  57  68 S7        29.77S
$$
MNZ078>079-086>088-094>096-261800-
   Southeast Minnesota

CITY           SKY/WX    TMP DP  RH WIND       PRES   REMARKS
ROCHESTER      CLOUDY    70  58  65 S15       29.77S
RED WING       CLOUDY    70  54  56 CALM      29.75R
STANTON        MOSUNNY   69  56  63 SW8       29.75R
DODGE CENTER   MOSUNNY   66  55  68 S10       29.78R
WINONA         PTSUNNY   72  59  64 S6        29.77S
AUSTIN         CLOUDY    68  55  64 S9        29.78R
PRESTON        CLOUDY    65  53  65 S10       29.80R
$$
ABBREVIATIONS USED IN REMARKS
   TC - TEMPERATURES IN CELSIUS
  WCI - WIND CHILL INDEX
   HX - HEAT INDEX
  VSB - VISIBILITY
$$




USA.gov is the U.S. government's official web portal to all federal, state and local government web resources and services.